Location: Newark
(25.0000°N, 73.5000°E)
Time: 00:40:17
(UTC+00:00)

Vanguard 3 - Visible Passes

Search period start: 31 July 2021 00:00
Search period end: 10 August 2021 00:00
Orbit: 508 x 3261 km, 33.4° (Epoch: 30 July)

Date Brightness Start Highest point End Pass type
(mag) Time Alt. Az. Time Alt. Az. Time Alt. Az.
31 Jul 10.3 15:09:52 10° W 15:27:53 66° N 15:47:09 10° E visible
31 Jul 9.7 17:26:48 10° WNW 17:47:10 81° NNE 17:51:38 62° E visible
31 Jul 10.3 19:45:00 10° WNW 19:56:05 38° W 19:56:05 38° W visible
01 Aug 10.3 13:53:46 10° W 14:09:26 68° N 14:29:38 10° ENE visible
01 Aug 10.1 16:09:41 10° WNW 16:29:01 71° NNE 16:40:38 31° E visible
01 Aug 9.7 18:26:51 10° WNW 18:45:06 73° WSW 18:45:06 73° WSW visible
01 Aug 11.1 20:46:46 10° W 20:49:34 15° W 20:49:34 15° W visible
02 Aug 10.3 14:53:11 10° WNW 15:10:30 66° N 15:29:42 11° E visible
02 Aug 9.8 17:09:27 10° WNW 17:29:38 85° NNE 17:34:09 63° ESE visible
02 Aug 10.4 19:27:24 10° WNW 19:38:38 37° W 19:38:38 37° W visible
03 Aug 10.3 13:37:21 10° W 13:52:10 66° N 14:12:18 10° ENE visible
03 Aug 10.1 15:52:41 10° WNW 16:11:30 74° NNE 16:23:17 32° E visible
03 Aug 9.8 18:09:21 10° WNW 18:27:45 69° WSW 18:27:45 69° WSW visible
03 Aug 11.1 20:29:31 10° W 20:32:13 14° W 20:32:13 14° W visible
04 Aug 10.3 14:36:32 10° WNW 14:53:06 67° N 15:12:26 12° E visible
04 Aug 9.8 16:52:12 10° WNW 17:11:59 90° SSW 17:16:55 62° ESE visible
04 Aug 10.5 19:09:56 10° WNW 19:21:23 36° W 19:21:23 36° W visible
05 Aug 10.1 15:35:47 10° WNW 15:53:57 77° NNE 16:06:08 32° E visible
05 Aug 9.9 17:51:57 10° WNW 18:10:36 65° SW 18:10:36 65° SW visible
05 Aug 11.2 20:12:29 10° W 20:15:05 14° W 20:15:05 14° W visible
06 Aug 10.2 14:19:58 10° WNW 14:35:45 68° N 14:55:23 11° E visible
06 Aug 9.8 16:35:03 10° WNW 16:54:16 85° SSW 16:59:52 59° SE visible
06 Aug 10.6 18:52:36 10° WNW 19:04:21 35° WSW 19:04:21 35° WSW visible
07 Aug 10.0 15:18:57 10° WNW 15:36:22 80° NNE 15:49:11 31° ESE visible
07 Aug 9.9 17:34:42 10° WNW 17:53:40 61° SW 17:53:40 61° SW visible
07 Aug 11.3 19:55:42 10° W 19:58:10 13° W 19:58:10 13° W visible
08 Aug 10.1 14:03:29 10° WNW 14:18:25 69° NNE 14:38:33 10° E visible
08 Aug 9.9 16:18:01 10° WNW 16:36:29 79° SSW 16:43:03 54° SE visible
08 Aug 10.6 18:35:28 10° WNW 18:47:33 34° WSW 18:47:33 34° WSW visible
09 Aug 10.0 15:02:12 10° WNW 15:18:47 84° NNE 15:32:29 28° ESE visible
09 Aug 10.0 17:17:35 10° WNW 17:35:59 55° SW 17:36:59 55° SSW visible
09 Aug 11.3 19:39:17 10° W 19:41:29 13° W 19:41:29 13° W visible
